When you browse on this site, cookies collect data to enhance your experience and personalize the content and advertising you see.
Visit our Privacy Policy to learn more. By continuing to use the site, you agree to this use of cookies and data.
  • In Czech Republic
  • List of Countries
  • For 7 days
  • Water Temperature
  • Weather Map
  • Weather Widgets
  • user-avatar
    Login

    Hourly Weather Burg bei Magdeburg

    Today, 21 October, Monday

    Time Temperature Precipitation Wind Pressure Humidity
    00:00 +14°C° 0 mm 2 mps 754 mmHg 87%
    01:00 +14°C° 0 mm 2 mps 754 mmHg 87%
    02:00 +13°C° 0 mm 2 mps 754 mmHg 88%
    03:00 +13°C° 0 mm 1 mps 754 mmHg 89%
    04:00 +13°C° 0 mm 1 mps 754 mmHg 91%
    05:00 +13°C° 0 mm 1 mps 755 mmHg 91%
    06:00 +12°C° 0 mm 1 mps 755 mmHg 92%
    07:00 +12°C° 0 mm 1 mps 756 mmHg 92%
    08:00 +14°C° 0 mm 1 mps 757 mmHg 87%
    09:00 +15°C° 0 mm 1 mps 757 mmHg 82%
    10:00 +18°C° 0 mm 1 mps 758 mmHg 77%
    11:00 +18°C° 0 mm 1 mps 758 mmHg 75%
    12:00 +19°C° 0 mm 1 mps 759 mmHg 74%
    13:00 +20°C° 0 mm 1 mps 759 mmHg 72%
    14:00 +20°C° 0 mm 1 mps 759 mmHg 74%
    15:00 +20°C° 0 mm 1 mps 759 mmHg 76%
    16:00 +18°C° 0 mm 0 mps 759 mmHg 78%
    17:00 +19°C° 0 mm 1 mps 760 mmHg 81%
    18:00 +18°C° 0 mm 1 mps 760 mmHg 83%
    19:00 +16°C° 0 mm 1 mps 761 mmHg 86%
    20:00 +16°C° 0 mm 1 mps 761 mmHg 84%
    21:00 +16°C° 0 mm 1 mps 761 mmHg 83%
    22:00 +16°C° 0 mm 1 mps 761 mmHg 82%
    23:00 +16°C° 0 mm 2 mps 762 mmHg 83%

    Tomorrow, 22 October, Tuesday

    Time Temperature Precipitation Wind Pressure Humidity
    00:00 +15°C° 0 mm 2 mps 762 mmHg 83%
    01:00 +14°C° 0 mm 2 mps 762 mmHg 84%
    02:00 +14°C° 0 mm 2 mps 762 mmHg 83%
    03:00 +14°C° 0 mm 2 mps 762 mmHg 82%
    04:00 +14°C° 0 mm 2 mps 762 mmHg 81%
    05:00 +13°C° 0 mm 2 mps 762 mmHg 81%
    06:00 +13°C° 0 mm 1 mps 762 mmHg 82%
    07:00 +12°C° 0 mm 1 mps 763 mmHg 82%
    08:00 +13°C° 0 mm 2 mps 763 mmHg 78%
    09:00 +15°C° 0 mm 2 mps 763 mmHg 73%
    10:00 +16°C° 0 mm 3 mps 763 mmHg 69%
    11:00 +16°C° 0 mm 3 mps 763 mmHg 66%
    12:00 +17°C° 0 mm 3 mps 763 mmHg 64%
    13:00 +18°C° 0 mm 3 mps 763 mmHg 61%
    14:00 +17°C° 0 mm 2 mps 763 mmHg 64%
    15:00 +17°C° 0 mm 2 mps 763 mmHg 67%
    16:00 +16°C° 0 mm 2 mps 763 mmHg 69%
    17:00 +15°C° 0 mm 2 mps 763 mmHg 75%
    18:00 +14°C° 0 mm 1 mps 763 mmHg 80%
    19:00 +12°C° 0 mm 1 mps 763 mmHg 86%
    20:00 +12°C° 0 mm 1 mps 763 mmHg 87%
    21:00 +10°C° 0 mm 0 mps 763 mmHg 88%
    22:00 +10°C° 0 mm 0 mps 763 mmHg 89%
    23:00 +10°C° 0 mm 0 mps 763 mmHg 90%

    Day after tomorrow, 23 October, Wednesday

    Time Temperature Precipitation Wind Pressure Humidity
    00:00 +11°C° 0 mm 1 mps 763 mmHg 90%
    01:00 +10°C° 0 mm 1 mps 763 mmHg 91%
    02:00 +10°C° 0 mm 1 mps 763 mmHg 92%
    03:00 +10°C° 0 mm 1 mps 763 mmHg 93%
    04:00 +10°C° 0 mm 1 mps 763 mmHg 94%
    05:00 +10°C° 0 mm 1 mps 762 mmHg 94%
    06:00 +9°C° 0 mm 1 mps 762 mmHg 94%
    07:00 +9°C° 0 mm 1 mps 762 mmHg 94%
    08:00 +11°C° 0 mm 1 mps 762 mmHg 89%
    09:00 +12°C° 0 mm 2 mps 761 mmHg 83%
    10:00 +14°C° 0 mm 2 mps 761 mmHg 78%
    11:00 +15°C° 0 mm 2 mps 761 mmHg 75%
    12:00 +16°C° 0 mm 2 mps 760 mmHg 72%
    13:00 +18°C° 0 mm 3 mps 760 mmHg 69%
    14:00 +17°C° 0 mm 2 mps 759 mmHg 72%
    15:00 +17°C° 0 mm 2 mps 759 mmHg 75%
    16:00 +17°C° 0 mm 2 mps 758 mmHg 78%
    17:00 +16°C° 0 mm 2 mps 758 mmHg 82%
    18:00 +14°C° 0 mm 3 mps 758 mmHg 86%
    19:00 +13°C° 0 mm 3 mps 758 mmHg 90%
    20:00 +12°C° 0 mm 3 mps 757 mmHg 92%
    21:00 +12°C° 0 mm 3 mps 757 mmHg 93%
    22:00 +13°C° 0 mm 2 mps 757 mmHg 94%
    23:00 +13°C° 0 mm 2 mps 756 mmHg 95%

    24 October, Thursday

    Time Temperature Precipitation Wind Pressure Humidity
    00:00 +12°C° 0 mm 2 mps 756 mmHg 95%
    01:00 +11°C° 0 mm 3 mps 755 mmHg 96%
    02:00 +12°C° 0 mm 2 mps 755 mmHg 96%
    03:00 +12°C° 0 mm 2 mps 754 mmHg 96%
    04:00 +12°C° 0 mm 2 mps 754 mmHg 97%
    05:00 +10°C° 0 mm 2 mps 754 mmHg 97%
    06:00 +10°C° 0 mm 2 mps 754 mmHg 97%
    07:00 +10°C° 0 mm 2 mps 753 mmHg 97%
    08:00 +12°C° 0 mm 2 mps 753 mmHg 92%
    09:00 +14°C° 0 mm 2 mps 753 mmHg 88%
    10:00 +15°C° 0 mm 2 mps 753 mmHg 83%
    11:00 +17°C° 0 mm 2 mps 753 mmHg 78%
    12:00 +18°C° 0 mm 2 mps 753 mmHg 74%
    13:00 +19°C° 0 mm 2 mps 753 mmHg 69%
    14:00 +19°C° 0 mm 2 mps 753 mmHg 71%
    15:00 +19°C° 0 mm 1 mps 753 mmHg 74%
    16:00 +19°C° 0 mm 1 mps 752 mmHg 76%
    17:00 +18°C° 0 mm 1 mps 753 mmHg 81%
    18:00 +16°C° 0 mm 1 mps 753 mmHg 85%
    19:00 +14°C° 0 mm 1 mps 754 mmHg 90%
    20:00 +14°C° 0 mm 2 mps 754 mmHg 90%
    21:00 +14°C° 0 mm 2 mps 754 mmHg 90%
    22:00 +14°C° 0 mm 2 mps 755 mmHg 91%
    23:00 +14°C° 0 mm 2 mps 755 mmHg 90%

    25 October, Friday

    Time Temperature Precipitation Wind Pressure Humidity
    00:00 +14°C° 0 mm 2 mps 756 mmHg 90%
    01:00 +13°C° 0 mm 2 mps 756 mmHg 90%
    02:00 +14°C° 0 mm 2 mps 756 mmHg 88%
    03:00 +14°C° 0 mm 2 mps 757 mmHg 86%
    04:00 +14°C° 0 mm 2 mps 757 mmHg 83%
    05:00 +13°C° 0 mm 3 mps 757 mmHg 83%
    06:00 +13°C° 0 mm 3 mps 758 mmHg 83%
    07:00 +12°C° 0 mm 3 mps 758 mmHg 82%
    08:00 +13°C° 0 mm 4 mps 759 mmHg 78%
    09:00 +14°C° 0 mm 5 mps 759 mmHg 75%
    10:00 +15°C° 0 mm 5 mps 760 mmHg 71%
    11:00 +15°C° 0 mm 5 mps 760 mmHg 67%
    12:00 +16°C° 0 mm 5 mps 761 mmHg 63%
    13:00 +17°C° 0 mm 4 mps 761 mmHg 60%
    14:00 +17°C° 0 mm 3 mps 761 mmHg 63%
    15:00 +16°C° 0 mm 3 mps 761 mmHg 66%
    16:00 +16°C° 0 mm 2 mps 761 mmHg 69%
    17:00 +14°C° 0 mm 2 mps 761 mmHg 74%
    18:00 +13°C° 0 mm 1 mps 762 mmHg 78%
    19:00 +12°C° 0 mm 1 mps 762 mmHg 82%
    20:00 +12°C° 0 mm 1 mps 762 mmHg 83%
    21:00 +11°C° 0 mm 1 mps 762 mmHg 84%
    22:00 +11°C° 0 mm 1 mps 762 mmHg 85%
    23:00 +10°C° 0 mm 2 mps 761 mmHg 87%

    26 October, Saturday

    Time Temperature Precipitation Wind Pressure Humidity
    00:00 +10°C° 0 mm 3 mps 761 mmHg 88%
    01:00 +10°C° 0 mm 3 mps 760 mmHg 90%
    02:00 +10°C° 0 mm 3 mps 760 mmHg 89%
    03:00 +10°C° 0 mm 4 mps 759 mmHg 89%
    04:00 +11°C° 0 mm 4 mps 759 mmHg 88%
    05:00 +11°C° 0 mm 4 mps 759 mmHg 87%
    06:00 +11°C° 0 mm 4 mps 759 mmHg 86%
    07:00 +11°C° 0 mm 4 mps 758 mmHg 85%
    08:00 +13°C° 0 mm 4 mps 759 mmHg 79%
    09:00 +14°C° 0 mm 5 mps 759 mmHg 72%
    10:00 +16°C° 0 mm 5 mps 759 mmHg 65%
    11:00 +16°C° 0 mm 5 mps 759 mmHg 64%
    12:00 +17°C° 0 mm 5 mps 759 mmHg 63%
    13:00 +18°C° 0 mm 4 mps 759 mmHg 62%
    14:00 +18°C° 0 mm 4 mps 759 mmHg 66%
    15:00 +17°C° 0 mm 3 mps 759 mmHg 70%
    16:00 +17°C° 0 mm 2 mps 759 mmHg 74%
    17:00 +16°C° 0 mm 2 mps 760 mmHg 78%
    18:00 +15°C° 0 mm 2 mps 760 mmHg 82%
    19:00 +14°C° 0 mm 2 mps 760 mmHg 87%
    20:00 +13°C° 0 mm 2 mps 761 mmHg 87%
    21:00 +13°C° 0 mm 1 mps 761 mmHg 87%
    22:00 +13°C° 0 mm 1 mps 762 mmHg 88%
    23:00 +12°C° 0 mm 1 mps 762 mmHg 88%

    27 October, Sunday

    Time Temperature Precipitation Wind Pressure Humidity
    00:00 +12°C° 0 mm 1 mps 762 mmHg 89%
    01:00 +12°C° 0 mm 1 mps 762 mmHg 90%
    02:00 +12°C° 0 mm 1 mps 762 mmHg 89%
    03:00 +12°C° 0 mm 1 mps 762 mmHg 88%
    04:00 +12°C° 0 mm 1 mps 762 mmHg 88%
    05:00 +11°C° 0 mm 1 mps 762 mmHg 87%
    06:00 +11°C° 0 mm 1 mps 762 mmHg 87%
    07:00 +11°C° 0 mm 1 mps 761 mmHg 87%
    08:00 +12°C° 0 mm 1 mps 762 mmHg 85%
    09:00 +12°C° 0 mm 1 mps 762 mmHg 83%
    10:00 +12°C° 0 mm 1 mps 762 mmHg 82%
    11:00 +12°C° 0 mm 1 mps 762 mmHg 81%
    12:00 +13°C° 0 mm 1 mps 762 mmHg 79%
    13:00 +13°C° 0 mm 1 mps 761 mmHg 78%
    14:00 +13°C° 0 mm 1 mps 761 mmHg 79%
    15:00 +13°C° 0 mm 1 mps 761 mmHg 80%
    16:00 +14°C° 0 mm 1 mps 761 mmHg 80%
    17:00 +13°C° 0 mm 2 mps 761 mmHg 82%
    18:00 +12°C° 0 mm 2 mps 761 mmHg 84%
    19:00 +10°C° 0 mm 2 mps 761 mmHg 86%
    20:00 +10°C° 0 mm 2 mps 761 mmHg 87%
    21:00 +10°C° 0 mm 2 mps 761 mmHg 89%
    22:00 +9°C° 0 mm 2 mps 761 mmHg 91%
    23:00 +9°C° 0 mm 2 mps 760 mmHg 92%
    Show more